Location: B
(0.0000°N, 0.0000°E)
Time: 01:02:57
(UTC+02:00)

ISS - All Passes

Search period start: 25 September 2017 00:00
Search period end: 05 October 2017 00:00
Orbit: 401 x 407 km, 51.6° (Epoch: 25 September)

Date Brightness Start Highest point End Pass type
(mag) Time Alt. Az. Time Alt. Az. Time Alt. Az.
25 Sep - 06:21:52 10° N 06:24:29 22° NE 06:27:05 10° ESE visible
25 Sep - 07:59:46 10° WSW 08:00:46 11° SW 08:01:44 10° SW daylight
25 Sep - 17:56:37 10° SSE 17:58:21 14° SE 18:00:04 10° E daylight
25 Sep - 19:32:23 10° W 19:34:37 17° NW 19:36:51 10° N daylight
26 Sep - 07:05:34 10° WNW 07:08:26 28° SW 07:11:19 10° S visible
26 Sep - 18:39:10 10° SW 18:42:19 47° NW 18:45:27 10° NNE daylight
27 Sep - 06:12:52 10° NW 06:16:07 86° SW 06:19:24 10° SE visible
27 Sep - 17:46:50 10° SSW 17:50:01 52° SE 17:53:10 10° NE daylight
28 Sep - 05:20:53 10° N 05:23:49 30° NE 05:26:44 10° ESE visible
28 Sep - 16:55:18 10° S 16:57:41 19° SE 17:00:02 10° E daylight
28 Sep - 18:32:27 10° W 18:33:56 13° NW 18:35:25 10° NNW daylight
29 Sep - 04:30:10 10° NNE 04:31:28 12° NE 04:32:46 10° ENE night (unlit)
29 Sep - 06:05:13 10° WNW 06:07:44 20° SW 06:10:14 10° S visible
29 Sep - 17:38:38 10° WSW 17:41:36 32° NW 17:44:32 10° N daylight
30 Sep - 05:12:09 10° NW 05:15:23 57° SW 05:18:36 10° SSE night (unlit)
30 Sep - 16:46:00 10° SSW 16:49:15 79° SE 16:52:28 10° NE daylight
01 Oct - 04:19:54 10° NNW 04:23:02 43° NE 04:26:10 10° SE night (unlit)
01 Oct - 15:54:07 10° S 15:56:53 25° SE 15:59:38 10° ENE daylight
02 Oct - 03:28:32 10° NNE 03:30:39 16° NE 03:32:47 10° E night (unlit)
02 Oct - 05:04:57 10° W 05:06:55 15° SW 05:08:53 10° SSW night (unlit)
02 Oct - 16:38:06 10° WSW 16:40:45 23° NW 16:43:24 10° N daylight
03 Oct - 04:11:26 10° NW 04:14:31 39° SW 04:17:37 10° SSE night (unlit)
03 Oct - 15:45:08 10° SW 15:48:22 70° NW 15:51:35 10° NNE daylight
04 Oct - 03:18:53 10° NNW 03:22:07 64° NE 03:25:22 10° SE night (unlit)
04 Oct - 14:52:57 10° SSW 14:55:58 36° SE 14:58:59 10° ENE daylight
